| time (UTC) | temp C | wind direction | speed KPH | gust KPH | rain 1hr cm | rain 24hr cm | rain mn cm | humidity % | barometer mb |
| 20260502161533 | 14 | 265 | 1.6 | 6.4 | 0.00 | 0.00 | 0.00 | 79 | 1018.6 |
| 20260502140106 | 10 | 158 | 3.2 | 6.4 | 0.00 | 0.00 | 0.00 | 93 | 1017.6 |
| 20260502123032 | 10 | 152 | 0.0 | 4.8 | 0.00 | 0.00 | 0.00 | 90 | 1017.2 |
| 20260502121529 | 10 | 172 | 1.6 | 4.8 | 0.00 | 0.00 | 0.00 | 89 | 1017.2 |
| 20260502120147 | 10 | 155 | 1.6 | 4.8 | 0.00 | 0.00 | 0.00 | 89 | 1017.3 |
| 20260502113033 | 11 | 191 | 3.2 | 6.4 | 0.00 | 0.00 | 0.00 | 87 | 1017.5 |
| 20260502111531 | 11 | 161 | 3.2 | 6.4 | 0.00 | 0.00 | 0.00 | 87 | 1017.5 |
| 20260502110031 | 11 | 132 | 4.8 | 9.7 | 0.00 | 0.00 | 0.00 | 87 | 1017.6 |
| 20260502104644 | 11 | 214 | 4.8 | 8.0 | 0.00 | 0.00 | 0.00 | 86 | 1017.6 |
| 20260502103031 | 11 | 119 | 3.2 | 6.4 | 0.00 | 0.00 | 0.00 | 87 | 1017.8 |
| 20260502091532 | 11 | 246 | 0.0 | 4.8 | 0.00 | 0.00 | 0.00 | 86 | 1018.2 |
| 20260502071532 | 12 | 159 | 4.8 | 8.0 | 0.00 | 0.00 | 0.00 | 83 | 1018.5 |
| 20260502070034 | 12 | 172 | 4.8 | 8.0 | 0.00 | 0.00 | 0.00 | 83 | 1018.5 |
| 20260502064531 | 12 | 185 | 3.2 | 4.8 | 0.00 | 0.00 | 0.00 | 81 | 1018.5 |
| 20260502063028 | 13 | 144 | 3.2 | 4.8 | 0.00 | 0.00 | 0.00 | 79 | 1018.6 |
| 20260502061530 | 13 | 135 | 4.8 | 8.0 | 0.00 | 0.00 | 0.00 | 78 | 1018.5 |
| 20260502060041 | 13 | 156 | 3.2 | 4.8 | 0.00 | 0.00 | 0.00 | 77 | 1018.5 |
| 20260502054531 | 14 | 170 | 1.6 | 6.4 | 0.00 | 0.00 | 0.00 | 75 | 1018.4 |
| 20260502053030 | 14 | 109 | 1.6 | 8.0 | 0.00 | 0.00 | 0.00 | 74 | 1018.3 |
| 20260502051604 | 15 | 155 | 3.2 | 6.4 | 0.00 | 0.00 | 0.00 | 71 | 1018.6 |
| 20260502050028 | 15 | 19 | 3.2 | 9.7 | 0.00 | 0.00 | 0.00 | 69 | 1018.2 |
| 20260502044533 | 16 | 28 | 6.4 | 11.3 | 0.00 | 0.00 | 0.00 | 69 | 1018.0 |
| 20260502043030 | 16 | 34 | 8.0 | 14.5 | 0.00 | 0.00 | 0.00 | 69 | 1017.9 |
| 20260502034607 | 17 | 319 | 6.4 | 12.9 | 0.00 | 0.00 | 0.00 | 64 | 1017.2 |
| 20260502033031 | 18 | 36 | 4.8 | 14.5 | 0.00 | 0.00 | 0.00 | 59 | 1017.3 |
| 20260502031533 | 18 | 44 | 4.8 | 11.3 | 0.00 | 0.00 | 0.00 | 57 | 1017.4 |
| 20260502030033 | 18 | 28 | 6.4 | 12.9 | 0.00 | 0.00 | 0.00 | 56 | 1017.2 |
| 20260502023032 | 20 | 322 | 4.8 | 11.3 | 0.00 | 0.00 | 0.00 | 53 | 1016.4 |
| 20260502021530 | 21 | 135 | 1.6 | 4.8 | 0.00 | 0.00 | 0.00 | 51 | 1016.2 |
| 20260502014646 | 23 | 256 | 0.0 | 3.2 | 0.00 | 0.00 | 0.00 | 40 | 1016.3 |
| 20260502011529 | 23 | 306 | 1.6 | 6.4 | 0.00 | 0.00 | 0.00 | 35 | 1016.3 |
| 20260502010029 | 24 | 292 | 1.6 | 6.4 | 0.00 | 0.00 | 0.00 | 34 | 1016.2 |
| 20260502004534 | 24 | 315 | 0.0 | 8.0 | 0.00 | 0.00 | 0.00 | 34 | 1016.3 |
| 20260502003029 | 24 | 301 | 3.2 | 6.4 | 0.00 | 0.00 | 0.00 | 34 | 1016.5 |
| 20260502001530 | 24 | 291 | 4.8 | 17.7 | 0.00 | 0.00 | 0.00 | 34 | 1016.4 |
| 20260501234605 | 22 | 318 | 6.4 | 16.1 | 0.00 | 0.00 | 0.00 | 38 | 1016.8 |
| 20260501233106 | 22 | 309 | 6.4 | 16.1 | 0.00 | 0.00 | 0.00 | 37 | 1016.8 |
| 20260501231529 | 23 | 346 | 6.4 | 14.5 | 0.00 | 0.00 | 0.00 | 37 | 1017.1 |
| 20260501230029 | 23 | 319 | 6.4 | 16.1 | 0.00 | 0.00 | 0.00 | 36 | 1017.3 |
| 20260501224646 | 23 | 313 | 8.0 | 14.5 | 0.00 | 0.00 | 0.00 | 37 | 1017.4 |
| 20260501221651 | 24 | 345 | 8.0 | 17.7 | 0.00 | 0.00 | 0.00 | 38 | 1017.8 |
| 20260501214531 | 22 | 309 | 6.4 | 17.7 | 0.00 | 0.00 | 0.00 | 39 | 1018.2 |
| 20260501213103 | 22 | 340 | 6.4 | 12.9 | 0.00 | 0.00 | 0.00 | 40 | 1018.4 |
| 20260501211529 | 22 | 357 | 4.8 | 14.5 | 0.00 | 0.00 | 0.00 | 41 | 1018.5 |
| 20260501210107 | 22 | 17 | 6.4 | 17.7 | 0.00 | 0.00 | 0.00 | 41 | 1018.6 |
| 20260501204608 | 21 | 343 | 6.4 | 12.9 | 0.00 | 0.00 | 0.00 | 41 | 1018.9 |
| 20260501201531 | 21 | 329 | 6.4 | 11.3 | 0.00 | 0.00 | 0.00 | 41 | 1019.0 |
| 20260501200031 | 21 | 320 | 4.8 | 11.3 | 0.00 | 0.00 | 0.00 | 41 | 1019.2 |
| 20260501194531 | 21 | 302 | 4.8 | 12.9 | 0.00 | 0.00 | 0.00 | 42 | 1019.4 |
| 20260501193106 | 20 | 339 | 3.2 | 11.3 | 0.00 | 0.00 | 0.00 | 43 | 1019.4 |
| 20260501190037 | 20 | 354 | 3.2 | 11.3 | 0.00 | 0.00 | 0.00 | 42 | 1019.5 |
| 20260501184603 | 20 | 327 | 3.2 | 11.3 | 0.00 | 0.00 | 0.00 | 42 | 1019.7 |
| 20260501183042 | 19 | 16 | 3.2 | 8.0 | 0.00 | 0.00 | 0.00 | 43 | 1019.9 |
| 20260501181533 | 18 | 294 | 1.6 | 8.0 | 0.00 | 0.00 | 0.00 | 44 | 1020.0 |
| 20260501180042 | 17 | 304 | 3.2 | 8.0 | 0.00 | 0.00 | 0.00 | 45 | 1020.0 |
| 20260501174529 | 17 | 314 | 4.8 | 11.3 | 0.00 | 0.00 | 0.00 | 45 | 1020.1 |
| 20260501173032 | 17 | 337 | 1.6 | 8.0 | 0.00 | 0.00 | 0.00 | 45 | 1020.1 |
| 20260501171532 | 17 | 44 | 3.2 | 6.4 | 0.00 | 0.00 | 0.00 | 48 | 1020.2 |